Terminal Aerodrome Forecast
Issued by NWS

Home | Current Version | Previous Version | Graphics & Text | Print | Product List | Glossary Off
Versions: 1 2 3 4 5 6 7 8 9 10 11 12 13 14 15 16 17 18 19 20

065
FTUS43 KDDC 191537 AAA
TAFHYS
TAF AMD
KHYS 191537Z 1916/2012 08012G20KT P6SM OVC050
     FM191700 07010KT 3SM -RA VCTS OVC030CB
     FM200200 04013G20KT 5SM -SHRA BR OVC005=

USA.gov is the U.S. government's official web portal to all federal, state and local government web resources and services.